Change the Weather History Date:

Friday, January 13, 2012

  Actual Average Record
Temperature  
Mean Temperature 16 °F 22 °F  
Max Temperature 22 °F 31 °F 62 °F (1987)
Min Temperature 9 °F 14 °F -20 °F (1916)
Degree Days  
Heating Degree Days 49 43  
Month to date heating degree days 427 552  
Since 1 July heating degree days 2489 3019  
Cooling Degree Days 0 0  
Month to date cooling degree days 0 0  
Year to date cooling degree days 0 0  
Moisture  
Dew Point 4 °F    
Average Humidity 63    
Maximum Humidity 80    
Minimum Humidity 45    
Precipitation  
Precipitation T in 0.03 in 0.49 in (1979)
Month to date precipitation 0.02 0.41  
Year to date precipitation 0.02 0.41  
Snow  
Snow 0.10 in 0.30 in 5.90 in (1979)
Month to date snowfall 0.9 3.4  
Since 1 July snowfall 6.6 15.3  
Snow Depth 1.00 in    
Sea Level Pressure  
Sea Level Pressure 30.05 in    
Wind  
Wind Speed 11 mph (WNW)    
Max Wind Speed 23 mph    
Max Gust Speed 33 mph    
Visibility 8 miles    
Events Snow    
T = Trace of Precipitation, MM = Missing Value Source: NWS Daily Summary

Daily Weather History Graph

Daily Weather History Graph

Search for Another Location

Airport or City:

Trip Planner

Search our weather history database for the weather conditions in past years. The results will help you decide how hot, cold, wet, or windy it might be!

Date:

Astronomy

Jan. 13, 2012 Rise Set
Actual Time 7:39 AM CST 5:06 PM CST
Civil Twilight 7:09 AM CST 5:37 PM CST
Nautical Twilight 6:34 AM CST 6:11 PM CST
Astronomical Twilight 6:01 AM CST 6:45 PM CST
Moon 10:25 PM CST (1/13) 9:50 AM CST (1/13)
Length of Visible Light 10h 28m
Length of Day
9h 27m
Waning Gibbous, 78% of the Moon is Illuminated
Jan 13
Waning Gibbous
Jan 16
Last Quarter
Jan 23
New
Jan 30
First Quarter
Feb 7
Full

Hourly Weather History & Observations

Time (CST) Temp. Windchill Dew Point Humidity Pressure Visibility Wind Dir Wind Speed Gust Speed Precip Events Conditions
12:54 AM 12.0 °F -5.1 °F 3.9 °F 70% 29.98 in 8.0 mi NW 17.3 mph 26.5 mph 0.00 in Snow Light Snow
1:54 AM 12.0 °F -5.6 °F 3.9 °F 70% 29.99 in 9.0 mi NW 18.4 mph 27.6 mph 0.00 in Snow Light Snow
2:54 AM 12.0 °F -6.9 °F 3.9 °F 70% 30.01 in 8.0 mi NW 21.9 mph 26.5 mph 0.00 in Snow Light Snow
3:54 AM 10.0 °F -7.1 °F 3.0 °F 73% 30.01 in 9.0 mi NW 16.1 mph 26.5 mph 0.00 in Snow Light Snow
4:54 AM 9.0 °F -6.6 °F 1.0 °F 70% 30.02 in 10.0 mi NW 12.7 mph - 0.00 in Snow Light Snow
5:54 AM 10.0 °F -6.5 °F 3.0 °F 73% 30.03 in 10.0 mi WNW 15.0 mph - 0.00 in   Overcast
6:13 AM 10.4 °F -7.2 °F 3.2 °F 73% 29.98 in 9.0 mi NW 17.3 mph - 0.00 in Snow Light Snow
6:54 AM 10.0 °F -7.1 °F 3.0 °F 73% 30.04 in 9.0 mi WNW 16.1 mph - 0.00 in Snow Light Snow
7:54 AM 10.0 °F -5.2 °F 5.0 °F 80% 30.07 in 7.0 mi NW 12.7 mph - 0.00 in Snow Light Snow
8:10 AM 10.4 °F -6.6 °F 3.2 °F 73% 30.02 in 2.0 mi NW 16.1 mph - 0.00 in Snow Light Snow
8:20 AM 8.6 °F -5.5 °F 3.2 °F 79% 30.03 in 3.0 mi NW 10.4 mph - N/A Snow Light Snow
8:32 AM 10.4 °F -4.1 °F 3.2 °F 73% 30.03 in 1.8 mi WNW 11.5 mph - 0.00 in Snow Light Snow
8:43 AM 8.6 °F -5.5 °F 3.2 °F 79% 30.03 in 3.0 mi NW 10.4 mph - 0.00 in Snow Light Snow
8:54 AM 9.0 °F -6.6 °F 3.0 °F 77% 30.09 in 3.0 mi NW 12.7 mph - 0.00 in Snow Light Snow
9:54 AM 10.0 °F -4.5 °F 3.9 °F 76% 30.11 in 3.0 mi WNW 11.5 mph - 0.00 in Snow Light Snow
10:54 AM 10.0 °F -4.5 °F 3.9 °F 76% 30.12 in 7.0 mi NW 11.5 mph - 0.00 in Snow Light Snow
11:32 AM 12.2 °F -2.5 °F 3.2 °F 67% 30.05 in 10.0 mi WNW 12.7 mph - 0.00 in   Scattered Clouds
11:54 AM 12.9 °F 3.8 °F 3.9 °F 67% 30.09 in 10.0 mi WNW 5.8 mph - 0.00 in   Partly Cloudy
12:54 PM 16.0 °F 4.4 °F 3.9 °F 59% 30.07 in 10.0 mi West 9.2 mph - N/A   Clear
1:54 PM 19.0 °F 5.6 °F 5.0 °F 54% 30.07 in 10.0 mi West 13.8 mph - N/A   Partly Cloudy
2:54 PM 21.0 °F 8.6 °F 5.0 °F 50% 30.07 in 10.0 mi West 12.7 mph - N/A   Mostly Cloudy
3:54 PM 21.9 °F 11.7 °F 3.0 °F 44% 30.07 in 10.0 mi WNW 9.2 mph - N/A   Scattered Clouds
4:54 PM 21.0 °F 16.2 °F 3.9 °F 48% 30.08 in 10.0 mi WSW 3.5 mph - N/A   Scattered Clouds
5:54 PM 19.0 °F 13.9 °F 3.9 °F 52% 30.09 in 10.0 mi WSW 3.5 mph - N/A   Mostly Cloudy
6:54 PM 18.0 °F 11.1 °F 5.0 °F 57% 30.09 in 10.0 mi SSW 4.6 mph - N/A   Mostly Cloudy
7:54 PM 18.0 °F 8.7 °F 6.1 °F 60% 30.10 in 10.0 mi SSW 6.9 mph - N/A   Mostly Cloudy
8:54 PM 17.1 °F 8.7 °F 6.1 °F 62% 30.08 in 10.0 mi South 5.8 mph - N/A   Mostly Cloudy
9:54 PM 18.0 °F 8.7 °F 7.0 °F 62% 30.06 in 10.0 mi South 6.9 mph - N/A   Overcast
10:54 PM 18.0 °F 11.1 °F 9.0 °F 68% 30.05 in 10.0 mi South 4.6 mph - N/A   Overcast
11:54 PM 19.9 °F 10.1 °F 9.0 °F 62% 30.02 in 9.0 mi SE 8.1 mph - 0.00 in Snow Light Snow